Main page
METAR-TAF:

METAR-TAF

Airports :

Raton Municipal Airport

Raton, New Mexico, United States

latitude: 36-44-31N, longitude: 104-39-28W, elevation: 6347 ft

Current weather observation

The report was made 39 minutes ago, at 05:53 UTC
Wind 6 mph from the North
Temperature 12°F
Humidity 78%
Pressure 30.11 in. Hg
Visibility: 10 miles
Clear sky

METAR: KRTN 230553Z AUTO 01005KT 10SM CLR M11/M14 A3011 RMK AO2 SLP245 T11061139 11044 21128 53001

Time: 23:32 (06:32 UTC)


TAF: missing

Weather observations and forecasts of more than 4000 airports (METAR and TAF reports).

The available stations are represented by yellow and red dots on the map.

Hover mouse over dot to see the name of the station.

Then click to see weather observations and forecasts.

To change the map : click on the green buttons with a black cross to zoom in, on the green button with a dash to zoom out, or on the green arrows for adjacent maps.


METAR-TAF: